BRA616 ENZV-EGPD

Flight info

Callsign BRA616
Flight time 0h 58m
Altitude 38000
Route LAPOT DCT KLONN DCT OVDAN P600 ADN
Aircraft B38M/M-SDE1FGHILORVWXY/HB1

Departure

Time 2026-05-05 16:34
Airport Stavanger Airport, Sola (ENZV)

Arrival

Time 2026-05-05 17:32
Airport Aberdeen International Airport (EGPD)
Time Latitude Longitude Altitude Speed Heading
2026-05-05 16:07 58.88073 5.62679 28 ft 0 kts 15°
2026-05-05 16:24 58.88017 5.62635 28 ft 0 kts 60°
2026-05-05 16:25 58.88016 5.62622 28 ft 2 kts 110°
2026-05-05 16:25 58.88016 5.62623 28 ft 0 kts 105°
2026-05-05 16:27 58.88016 5.62624 28 ft 0 kts 105°
2026-05-05 16:27 58.88016 5.62626 28 ft 0 kts 103°
2026-05-05 16:29 58.88014 5.62638 28 ft 4 kts 103°
2026-05-05 16:29 58.87994 5.62783 28 ft 18 kts 105°
2026-05-05 16:30 58.87988 5.63056 30 ft 21 kts 107°
2026-05-05 16:30 58.87933 5.63352 34 ft 10 kts 155°
2026-05-05 16:30 58.87827 5.63286 34 ft 22 kts 181°
2026-05-05 16:30 58.87626 5.63295 33 ft 36 kts 178°
2026-05-05 16:31 58.87358 5.63303 34 ft 36 kts 179°
2026-05-05 16:31 58.87131 5.63310 34 ft 30 kts 179°
2026-05-05 16:31 58.86993 5.63460 35 ft 21 kts 92°
2026-05-05 16:31 58.87008 5.63553 36 ft 0 kts 63°
2026-05-05 16:32 58.87009 5.63554 36 ft 0 kts 63°
2026-05-05 16:32 58.87009 5.63556 36 ft 0 kts 63°
2026-05-05 16:32 58.87012 5.63567 34 ft 2 kts 62°
2026-05-05 16:33 58.87036 5.63655 38 ft 16 kts 63°
2026-05-05 16:33 58.87226 5.63796 37 ft 65 kts 358°
2026-05-05 16:33 58.87946 5.63773 35 ft 139 kts 358°
2026-05-05 16:33 58.89084 5.63789 362 ft 176 kts 356°
2026-05-05 16:34 58.90287 5.63752 1567 ft 170 kts 354°
2026-05-05 16:34 58.91498 5.63689 2394 ft 184 kts 354°
2026-05-05 16:34 58.92858 5.63625 2891 ft 207 kts 354°
2026-05-05 16:34 58.93865 5.63583 3169 ft 228 kts 355°
2026-05-05 16:35 58.95466 5.63523 4069 ft 234 kts 355°
2026-05-05 16:35 58.97736 5.63438 5021 ft 256 kts 355°
2026-05-05 16:35 58.98949 5.63394 5686 ft 257 kts 354°
2026-05-05 16:35 59.00753 5.63328 6660 ft 262 kts 354°
2026-05-05 16:36 59.02566 5.63262 7562 ft 265 kts 354°
2026-05-05 16:36 59.04400 5.62936 8490 ft 263 kts 337°
2026-05-05 16:36 59.05928 5.61164 9434 ft 256 kts 311°
2026-05-05 16:36 59.06940 5.58338 10276 ft 256 kts 291°
2026-05-05 16:37 59.07287 5.54847 10736 ft 274 kts 269°
2026-05-05 16:37 59.06836 5.51167 11076 ft 298 kts 247°
2026-05-05 16:37 59.05521 5.47905 11554 ft 321 kts 224°
2026-05-05 16:37 59.03511 5.45740 12173 ft 340 kts 204°
2026-05-05 16:38 59.01134 5.44998 13031 ft 353 kts 187°
2026-05-05 16:38 58.98653 5.44988 13795 ft 358 kts 187°
2026-05-05 16:38 58.96165 5.44990 14461 ft 363 kts 187°
2026-05-05 16:38 58.93615 5.45012 15181 ft 366 kts 187°
2026-05-05 16:39 58.91059 5.45041 15869 ft 369 kts 187°
2026-05-05 16:39 58.88474 5.45082 16581 ft 372 kts 188°
2026-05-05 16:39 58.85871 5.45123 17268 ft 376 kts 188°
2026-05-05 16:39 58.83279 5.45165 17926 ft 379 kts 188°
2026-05-05 16:40 58.80622 5.45182 18552 ft 380 kts 192°
2026-05-05 16:40 58.78091 5.44222 19063 ft 365 kts 210°
2026-05-05 16:40 58.75928 5.41821 19541 ft 354 kts 226°
2026-05-05 16:40 58.73986 5.38855 20022 ft 361 kts 223°
2026-05-05 16:41 58.71955 5.36076 20576 ft 364 kts 222°
2026-05-05 16:41 58.69877 5.33259 21171 ft 364 kts 222°
2026-05-05 16:41 58.67827 5.30497 22174 ft 354 kts 223°
2026-05-05 16:41 58.65818 5.27811 23020 ft 350 kts 222°
2026-05-05 16:42 58.63800 5.25112 23497 ft 355 kts 223°
2026-05-05 16:42 58.61762 5.22382 23936 ft 358 kts 223°
2026-05-05 16:42 58.59713 5.19633 24376 ft 360 kts 222°
2026-05-05 16:42 58.57670 5.16889 24810 ft 363 kts 223°
2026-05-05 16:43 58.55881 5.13630 25219 ft 350 kts 242°
2026-05-05 16:43 58.54952 5.09385 25548 ft 347 kts 258°
2026-05-05 16:43 58.54440 5.04850 25874 ft 350 kts 263°
2026-05-05 16:43 58.54094 5.00224 26288 ft 352 kts 264°
2026-05-05 16:44 58.53774 4.95545 26697 ft 354 kts 264°
2026-05-05 16:44 58.53467 4.90859 27093 ft 356 kts 264°
2026-05-05 16:44 58.53169 4.86181 27484 ft 359 kts 264°
2026-05-05 16:44 58.52870 4.81419 27865 ft 361 kts 264°
2026-05-05 16:45 58.52570 4.76625 28254 ft 363 kts 264°
2026-05-05 16:45 58.52268 4.71805 28631 ft 365 kts 264°
2026-05-05 16:45 58.51964 4.66971 28993 ft 368 kts 264°
2026-05-05 16:45 58.51657 4.62130 29356 ft 370 kts 264°
2026-05-05 16:46 58.51345 4.57233 29706 ft 372 kts 264°
2026-05-05 16:46 58.51032 4.52339 30039 ft 374 kts 264°
2026-05-05 16:46 58.50713 4.47385 30332 ft 376 kts 264°
2026-05-05 16:46 58.50390 4.42396 30626 ft 378 kts 264°
2026-05-05 16:47 58.50062 4.37367 30905 ft 380 kts 264°
2026-05-05 16:47 58.49732 4.32335 31173 ft 383 kts 264°
2026-05-05 16:47 58.49398 4.27265 31442 ft 384 kts 264°
2026-05-05 16:47 58.49060 4.22179 31713 ft 386 kts 264°
2026-05-05 16:48 58.48720 4.17077 32011 ft 387 kts 264°
2026-05-05 16:48 58.48379 4.11980 32369 ft 387 kts 264°
2026-05-05 16:48 58.48040 4.06951 32723 ft 386 kts 263°
2026-05-05 16:48 58.47696 4.01871 33081 ft 386 kts 263°
2026-05-05 16:49 58.47349 3.96781 33427 ft 385 kts 263°
2026-05-05 16:49 58.47001 3.91703 33769 ft 385 kts 263°
2026-05-05 16:49 58.46651 3.86635 34094 ft 385 kts 263°
2026-05-05 16:49 58.46299 3.81566 34353 ft 385 kts 263°
2026-05-05 16:50 58.45944 3.76492 34575 ft 386 kts 263°
2026-05-05 16:50 58.45586 3.71398 34797 ft 387 kts 263°
2026-05-05 16:50 58.45225 3.66296 35017 ft 388 kts 263°
2026-05-05 16:50 58.44861 3.61185 35240 ft 389 kts 263°
2026-05-05 16:51 58.44494 3.56058 35457 ft 390 kts 263°
2026-05-05 16:51 58.44123 3.50919 35671 ft 391 kts 263°
2026-05-05 16:51 58.43749 3.45760 35889 ft 392 kts 263°
2026-05-05 16:51 58.43377 3.40665 36103 ft 393 kts 263°
2026-05-05 16:52 58.42998 3.35490 36310 ft 394 kts 263°
2026-05-05 16:52 58.42614 3.30291 36507 ft 394 kts 263°
2026-05-05 16:52 58.42229 3.25104 36711 ft 395 kts 263°
2026-05-05 16:52 58.41841 3.19910 36910 ft 396 kts 263°
2026-05-05 16:53 58.41454 3.14751 37102 ft 397 kts 263°
2026-05-05 16:53 58.41058 3.09516 37290 ft 397 kts 263°
2026-05-05 16:53 58.40663 3.04304 37472 ft 398 kts 263°
2026-05-05 16:53 58.40263 2.99073 37650 ft 398 kts 263°
2026-05-05 16:54 58.39862 2.93851 37826 ft 399 kts 263°
2026-05-05 16:54 58.39457 2.88615 37988 ft 400 kts 263°
2026-05-05 16:54 58.39026 2.78140 38046 ft 398 kts 264°
2026-05-05 16:55 58.38350 2.73043 38021 ft 399 kts 247°
2026-05-05 16:55 58.36970 2.68407 38055 ft 402 kts 244°
2026-05-05 16:55 58.34655 2.58702 38057 ft 403 kts 250°
2026-05-05 16:56 58.32651 2.48775 38045 ft 401 kts 252°
2026-05-05 16:56 58.30735 2.38862 38054 ft 401 kts 252°
2026-05-05 16:57 58.28825 2.28878 38050 ft 401 kts 252°
2026-05-05 16:57 58.26921 2.18951 38058 ft 401 kts 252°
2026-05-05 16:58 58.25000 2.08983 38055 ft 401 kts 252°
2026-05-05 16:58 58.23073 1.99040 38060 ft 401 kts 252°
2026-05-05 16:59 58.21134 1.89084 38057 ft 401 kts 252°
2026-05-05 16:59 58.19205 1.79228 38065 ft 401 kts 252°
2026-05-05 17:00 58.17255 1.69312 38059 ft 401 kts 252°
2026-05-05 17:00 58.16282 1.64386 37798 ft 394 kts 252°
2026-05-05 17:00 58.15328 1.59563 37499 ft 384 kts 252°
2026-05-05 17:01 58.14412 1.54949 37391 ft 372 kts 252°
2026-05-05 17:01 58.13510 1.50412 37085 ft 365 kts 252°
2026-05-05 17:01 58.12606 1.45878 36580 ft 371 kts 252°
2026-05-05 17:01 58.11689 1.41284 35939 ft 373 kts 252°
2026-05-05 17:02 58.10768 1.36688 35373 ft 373 kts 251°
2026-05-05 17:02 58.09861 1.32171 34915 ft 369 kts 251°
2026-05-05 17:02 58.08950 1.27638 34468 ft 366 kts 251°
2026-05-05 17:02 58.08045 1.23152 33998 ft 364 kts 251°
2026-05-05 17:03 58.07145 1.18695 33457 ft 361 kts 251°
2026-05-05 17:03 58.06250 1.14278 32986 ft 358 kts 251°
2026-05-05 17:03 58.05375 1.09967 32551 ft 354 kts 251°
2026-05-05 17:03 58.04500 1.05661 32126 ft 350 kts 251°
2026-05-05 17:04 58.03629 1.01389 31698 ft 346 kts 252°
2026-05-05 17:04 58.02766 0.97163 31287 ft 342 kts 251°
2026-05-05 17:04 58.01914 0.92998 30889 ft 339 kts 252°
2026-05-05 17:04 58.01068 0.88878 30492 ft 335 kts 252°
2026-05-05 17:05 58.00225 0.84777 30096 ft 332 kts 252°
2026-05-05 17:05 57.99402 0.80779 29665 ft 329 kts 252°
2026-05-05 17:05 57.98578 0.76788 29276 ft 324 kts 252°
2026-05-05 17:05 57.97760 0.72830 28920 ft 319 kts 252°
2026-05-05 17:06 57.96958 0.68959 28562 ft 315 kts 252°
2026-05-05 17:06 57.96175 0.65186 28226 ft 310 kts 252°
2026-05-05 17:06 57.95391 0.61418 27885 ft 306 kts 252°
2026-05-05 17:06 57.94620 0.57713 27555 ft 302 kts 252°
2026-05-05 17:07 57.93857 0.54056 27231 ft 298 kts 252°
2026-05-05 17:07 57.93102 0.50440 26918 ft 299 kts 252°
2026-05-05 17:07 57.92332 0.46761 26586 ft 304 kts 252°
2026-05-05 17:07 57.91560 0.43075 26257 ft 307 kts 251°
2026-05-05 17:08 57.90773 0.39323 25934 ft 307 kts 251°
2026-05-05 17:08 57.89988 0.35591 25618 ft 306 kts 251°
2026-05-05 17:08 57.89207 0.31879 25290 ft 305 kts 251°
2026-05-05 17:08 57.88419 0.28170 24908 ft 304 kts 251°
2026-05-05 17:09 57.87647 0.24538 24593 ft 301 kts 251°
2026-05-05 17:09 57.86876 0.20908 24285 ft 297 kts 251°
2026-05-05 17:09 57.86111 0.17312 23971 ft 294 kts 251°
2026-05-05 17:09 57.85356 0.13765 23662 ft 291 kts 251°
2026-05-05 17:10 57.84605 0.10243 23307 ft 288 kts 251°
2026-05-05 17:10 57.83861 0.06761 22976 ft 284 kts 251°
2026-05-05 17:10 57.83131 0.03351 22684 ft 280 kts 251°
2026-05-05 17:10 57.82409 -0.00019 22388 ft 285 kts 251°
2026-05-05 17:11 57.81662 -0.03497 22088 ft 289 kts 251°
2026-05-05 17:11 57.80905 -0.07016 21788 ft 291 kts 251°
2026-05-05 17:11 57.80146 -0.10541 21483 ft 291 kts 251°
2026-05-05 17:11 57.79385 -0.14064 21189 ft 290 kts 251°
2026-05-05 17:12 57.78627 -0.17572 20890 ft 289 kts 251°
2026-05-05 17:12 57.77871 -0.21064 20593 ft 289 kts 251°
2026-05-05 17:12 57.77117 -0.24540 20297 ft 288 kts 251°
2026-05-05 17:12 57.76372 -0.27971 19997 ft 287 kts 251°
2026-05-05 17:13 57.75620 -0.31427 19705 ft 286 kts 251°
2026-05-05 17:13 57.74868 -0.34873 19415 ft 285 kts 251°
2026-05-05 17:13 57.74118 -0.38308 19120 ft 284 kts 251°
2026-05-05 17:13 57.73369 -0.41733 18826 ft 284 kts 251°
2026-05-05 17:14 57.72620 -0.45155 18533 ft 282 kts 251°
2026-05-05 17:14 57.71884 -0.48511 18225 ft 279 kts 251°
2026-05-05 17:14 57.71151 -0.51849 17898 ft 276 kts 251°
2026-05-05 17:14 57.70421 -0.55151 17561 ft 273 kts 249°
2026-05-05 17:15 57.69404 -0.58201 17187 ft 276 kts 238°
2026-05-05 17:15 57.68288 -0.61047 16901 ft 272 kts 238°
2026-05-05 17:15 57.67177 -0.63882 16620 ft 268 kts 238°
2026-05-05 17:15 57.66066 -0.66714 16334 ft 272 kts 238°
2026-05-05 17:16 57.64933 -0.69593 16044 ft 277 kts 238°
2026-05-05 17:16 57.63783 -0.72512 15759 ft 279 kts 238°
2026-05-05 17:16 57.62631 -0.75432 15472 ft 279 kts 238°
2026-05-05 17:16 57.61495 -0.78307 15188 ft 278 kts 238°
2026-05-05 17:17 57.60349 -0.81206 14901 ft 277 kts 238°
2026-05-05 17:17 57.59201 -0.84104 14616 ft 277 kts 238°
2026-05-05 17:17 57.58057 -0.86991 14321 ft 277 kts 238°
2026-05-05 17:17 57.56913 -0.89873 14037 ft 277 kts 238°
2026-05-05 17:18 57.55767 -0.92756 13725 ft 276 kts 238°
2026-05-05 17:18 57.54621 -0.95635 13408 ft 276 kts 238°
2026-05-05 17:18 57.53493 -0.98466 13110 ft 275 kts 238°
2026-05-05 17:18 57.52355 -1.01322 12816 ft 274 kts 238°
2026-05-05 17:19 57.51219 -1.04166 12531 ft 273 kts 238°
2026-05-05 17:19 57.50084 -1.07006 12236 ft 272 kts 238°
2026-05-05 17:19 57.48967 -1.09796 11961 ft 271 kts 238°
2026-05-05 17:19 57.47837 -1.12615 11677 ft 270 kts 238°
2026-05-05 17:20 57.46709 -1.15428 11389 ft 270 kts 237°
2026-05-05 17:20 57.45587 -1.18222 11103 ft 269 kts 237°
2026-05-05 17:20 57.44484 -1.20965 10824 ft 268 kts 237°
2026-05-05 17:20 57.43365 -1.23742 10542 ft 268 kts 237°
2026-05-05 17:21 57.42252 -1.26507 10262 ft 266 kts 237°
2026-05-05 17:21 57.41148 -1.29241 10021 ft 262 kts 237°
2026-05-05 17:21 57.40059 -1.31937 9719 ft 259 kts 237°
2026-05-05 17:22 57.37930 -1.37198 9145 ft 253 kts 237°
2026-05-05 17:22 57.36880 -1.39790 8882 ft 250 kts 237°
2026-05-05 17:22 57.35842 -1.42347 8614 ft 246 kts 237°
2026-05-05 17:22 57.35149 -1.44055 8439 ft 244 kts 237°
2026-05-05 17:23 57.34129 -1.46565 8174 ft 246 kts 236°
2026-05-05 17:23 57.33097 -1.49100 7919 ft 252 kts 236°
2026-05-05 17:23 57.32033 -1.51713 7645 ft 255 kts 236°
2026-05-05 17:23 57.30962 -1.54339 7370 ft 256 kts 236°
2026-05-05 17:24 57.29888 -1.56972 7097 ft 256 kts 236°
2026-05-05 17:24 57.28810 -1.59608 6820 ft 256 kts 236°
2026-05-05 17:24 57.27731 -1.62248 6549 ft 256 kts 236°
2026-05-05 17:24 57.26670 -1.64839 6259 ft 256 kts 235°
2026-05-05 17:25 57.25594 -1.67463 5964 ft 254 kts 235°
2026-05-05 17:25 57.24891 -1.69176 5783 ft 252 kts 235°
2026-05-05 17:25 57.23492 -1.72581 5421 ft 249 kts 235°
2026-05-05 17:25 57.22449 -1.75118 5156 ft 246 kts 235°
2026-05-05 17:26 57.21417 -1.77622 4889 ft 244 kts 235°
2026-05-05 17:26 57.20391 -1.80114 4607 ft 242 kts 235°
2026-05-05 17:26 57.19376 -1.82573 4347 ft 240 kts 235°
2026-05-05 17:26 57.18391 -1.84958 4202 ft 233 kts 235°
2026-05-05 17:27 57.17425 -1.87295 4086 ft 223 kts 235°
2026-05-05 17:27 57.16502 -1.89528 3971 ft 215 kts 236°
2026-05-05 17:27 57.15606 -1.91691 3852 ft 212 kts 235°
2026-05-05 17:27 57.14707 -1.93859 3747 ft 218 kts 235°
2026-05-05 17:28 57.13782 -1.96090 3616 ft 219 kts 235°
2026-05-05 17:28 57.12856 -1.98321 3481 ft 220 kts 235°
2026-05-05 17:28 57.11929 -2.00555 3329 ft 219 kts 235°
2026-05-05 17:28 57.10997 -2.02795 3128 ft 220 kts 235°
2026-05-05 17:29 57.10067 -2.05030 3016 ft 219 kts 235°
2026-05-05 17:29 57.09210 -2.07292 2996 ft 217 kts 248°
2026-05-05 17:29 57.08934 -2.09954 2804 ft 211 kts 278°
2026-05-05 17:29 57.09448 -2.12360 2648 ft 198 kts 310°
2026-05-05 17:30 57.10525 -2.13763 2372 ft 188 kts 343°
2026-05-05 17:30 57.11752 -2.14016 2115 ft 168 kts 354°
2026-05-05 17:30 57.12828 -2.14409 1890 ft 148 kts 343°
2026-05-05 17:30 57.13755 -2.15042 1622 ft 143 kts 339°
2026-05-05 17:31 57.14718 -2.15762 1467 ft 150 kts 337°
2026-05-05 17:31 57.15682 -2.16499 1268 ft 151 kts 340°
2026-05-05 17:31 57.16676 -2.17179 1074 ft 150 kts 341°
2026-05-05 17:31 57.17630 -2.17869 829 ft 147 kts 338°
2026-05-05 17:32 57.18574 -2.18583 489 ft 146 kts 340°
2026-05-05 17:32 57.19522 -2.19288 268 ft 146 kts 339°
2026-05-05 17:32 57.20345 -2.19889 250 ft 88 kts 338°
2026-05-05 17:32 57.20489 -2.20015 252 ft 2 kts 260°
2026-05-05 17:33 57.20465 -2.20067 251 ft 11 kts 226°
2026-05-05 17:33 57.20380 -2.20231 250 ft 21 kts 226°
2026-05-05 17:33 57.20363 -2.20263 250 ft 0 kts 226°
2026-05-05 17:33 57.20361 -2.20266 250 ft 1 kts 226°
2026-05-05 17:34 57.20335 -2.20309 250 ft 9 kts 208°
2026-05-05 17:34 57.20268 -2.20276 250 ft 15 kts 157°
2026-05-05 17:34 57.20138 -2.20176 249 ft 24 kts 157°
2026-05-05 17:34 57.20054 -2.20122 249 ft 3 kts 197°
2026-05-05 17:35 57.20049 -2.20138 249 ft 4 kts 241°
2026-05-05 17:35 57.20031 -2.20216 249 ft 2 kts 248°
2026-05-05 17:35 57.20030 -2.20220 249 ft 0 kts 248°